EW7112 Weather Reports


Display with metric or nautical units.
time (UTC)temp
F
wind
direction
speed
MPH
gust
MPH
rain 1hr
in
rain 24hr
in
rain mn
in
humidity
%
barometer
mb
20260831094604 84 131 0.0 5.0 0.00 0.00 0.00 61 992.2
20260831093057 84 220 1.0 4.0 0.00 0.00 0.00 60 992.2
20260831091601 85 182 1.0 6.0 0.00 0.00 0.00 59 992.0
20260831090053 85 221 2.0 5.0 0.00 0.00 0.00 58 992.0
20260831084551 85 236 1.0 8.0 0.00 0.00 0.00 57 991.9
20260831083050 85 197 1.0 8.0 0.00 0.00 0.00 56 992.0
20260831081550 86 186 2.0 6.0 0.00 0.00 0.00 55 992.0
20260831080100 86 230 3.0 10.0 0.00 0.00 0.00 54 992.0
20260831074542 87 198 3.0 8.0 0.00 0.00 0.00 53 991.8
20260831073102 87 226 3.0 5.0 0.00 0.00 0.00 51 991.8
20260831071550 87 205 1.0 6.0 0.00 0.00 0.00 50 991.7
20260831070039 87 237 1.0 4.0 0.00 0.00 0.00 50 991.6
20260831064541 87 205 0.0 3.0 0.00 0.00 0.00 51 991.8
20260831063042 87 205 0.0 1.0 0.00 0.00 0.00 50 991.8
20260831061533 88 205 0.0 1.0 0.00 0.00 0.00 51 991.7
20260831060030 88 205 0.0 2.0 0.00 0.00 0.00 49 991.8
20260831054528 89 200 0.0 2.0 0.00 0.00 0.00 49 992.0
20260831053025 89 116 0.0 2.0 0.00 0.00 0.00 47 991.8
20260831051526 90 140 0.0 1.0 0.00 0.00 0.00 47 991.7
20260831050020 90 135 0.0 2.0 0.00 0.00 0.00 46 991.6
20260831044520 90 131 0.0 3.0 0.00 0.00 0.00 45 991.5
20260831043019 91 105 0.0 2.0 0.00 0.00 0.00 45 991.6
20260831041519 91 103 0.0 2.0 0.00 0.00 0.00 45 991.4
20260831040018 91 181 0.0 2.0 0.00 0.00 0.00 44 991.4
20260831034527 92 139 0.0 2.0 0.00 0.00 0.00 43 991.5
20260831033032 92 139 0.0 2.0 0.00 0.00 0.00 43 991.3
20260831031518 92 99 1.0 4.0 0.00 0.00 0.00 42 991.2
20260831030016 93 94 1.0 3.0 0.00 0.00 0.00 42 991.2
20260831024516 93 136 1.0 5.0 0.00 0.00 0.00 41 991.0
20260831023015 93 114 1.0 3.0 0.00 0.00 0.00 41 990.8
20260831021529 94 101 1.0 3.0 0.00 0.00 0.00 40 990.6
20260831020015 94 137 1.0 4.0 0.00 0.00 0.00 39 990.2
20260831014514 95 139 2.0 5.0 0.00 0.00 0.00 38 990.0
20260831013015 95 96 2.0 4.0 0.00 0.00 0.00 37 989.9
20260831011531 96 89 0.0 4.0 0.00 0.00 0.00 35 989.8
20260831010011 96 109 1.0 3.0 0.00 0.00 0.00 34 989.8
20260831004511 97 83 0.0 7.0 0.00 0.00 0.00 33 989.7
20260831003015 97 95 1.0 7.0 0.00 0.00 0.00 32 989.6
20260831001515 98 214 2.0 5.0 0.00 0.00 0.00 32 989.7
20260831000008 98 220 3.0 8.0 0.00 0.00 0.00 32 989.8
20260830234518 99 110 3.0 6.0 0.00 0.00 0.00 31 989.8
20260830233009 99 134 5.0 9.0 0.00 0.00 0.00 31 989.8
20260830231509 99 209 3.0 8.0 0.00 0.00 0.00 30 989.8
20260830230002 100 139 3.0 6.0 0.00 0.00 0.00 30 989.9
20260830224502 100 191 4.0 11.0 0.00 0.00 0.00 29 990.1
20260830223001 100 108 3.0 9.0 0.00 0.00 0.00 28 990.1
20260830221600 101 150 4.0 11.0 0.00 0.00 0.00 29 990.1
20260830214600 101 211 3.0 8.0 0.00 0.00 0.00 30 990.1
20260830213054 102 149 4.0 11.0 0.00 0.00 0.00 30 990.2
20260830211551 101 110 3.0 11.0 0.00 0.00 0.00 29 990.4
20260830210048 100 248 3.0 8.0 0.00 0.00 0.00 31 990.6
20260830204545 100 128 2.0 8.0 0.00 0.00 0.00 32 990.8
20260830203043 100 180 3.0 9.0 0.00 0.00 0.00 32 991.0
20260830201543 100 121 1.0 10.0 0.00 0.00 0.00 32 991.2
20260830200036 101 257 2.0 8.0 0.00 0.00 0.00 32 991.4
20260830194534 100 154 3.0 7.0 0.00 0.00 0.00 33 991.5
20260830193031 99 94 4.0 12.0 0.00 0.00 0.00 35 991.8
20260830191529 99 71 3.0 12.0 0.00 0.00 0.00 34 991.9
20260830190025 100 198 4.0 11.0 0.00 0.00 0.00 34 992.1
20260830184523 99 269 3.0 9.0 0.00 0.00 0.00 35 992.3
20260830183021 98 153 3.0 10.0 0.00 0.00 0.00 36 992.6
20260830181519 98 262 2.0 9.0 0.00 0.00 0.00 38 992.7
20260830180016 97 173 5.0 12.0 0.00 0.00 0.00 39 993.0
20260830174525 97 195 4.0 10.0 0.00 0.00 0.00 39 993.3
20260830173011 96 214 3.0 10.0 0.00 0.00 0.00 41 993.4
20260830171509 96 271 4.0 9.0 0.00 0.00 0.00 41 993.6
20260830170006 94 255 2.0 8.0 0.00 0.00 0.00 45 993.9
20260830164506 94 224 3.0 12.0 0.00 0.00 0.00 46 994.0
20260830163103 93 162 4.0 11.0 0.00 0.00 0.00 48 994.1
20260830161609 92 219 2.0 10.0 0.00 0.00 0.00 51 994.3
20260830160053 91 95 2.0 9.0 0.00 0.00 0.00 53 994.2
20260830154549 90 192 3.0 7.0 0.00 0.00 0.00 55 994.3
20260830153046 90 147 2.0 6.0 0.00 0.00 0.00 55 994.3
20260830151547 89 242 3.0 7.0 0.00 0.00 0.00 56 994.3
20260830150040 88 244 2.0 7.0 0.00 0.00 0.00 58 994.2
20260830144538 87 207 4.0 7.0 0.00 0.00 0.00 59 994.2
20260830143035 86 240 2.0 8.0 0.00 0.00 0.00 61 994.2
20260830141533 85 165 3.0 6.0 0.00 0.00 0.00 63 994.3
20260830140032 84 169 2.0 4.0 0.00 0.00 0.00 65 994.3
20260830134529 83 225 0.0 5.0 0.00 0.00 0.00 67 994.2
20260830133026 83 220 2.0 8.0 0.00 0.00 0.00 68 994.2
20260830131524 82 205 1.0 4.0 0.00 0.00 0.00 69 994.1
20260830130021 81 155 0.0 1.0 0.00 0.00 0.00 70 993.9
20260830124533 81 155 0.0 0.0 0.00 0.00 0.00 69 993.6
20260830123018 81 155 0.0 1.0 0.00 0.00 0.00 69 993.4
20260830121514 81 155 0.0 0.0 0.00 0.00 0.00 68 993.3
20260830120013 81 155 0.0 3.0 0.00 0.00 0.00 67 993.2
20260830114510 81 155 0.0 2.0 0.00 0.00 0.00 66 993.0
20260830113008 82 155 0.0 2.0 0.00 0.00 0.00 66 992.8
20260830111511 82 155 0.0 1.0 0.00 0.00 0.00 64 992.7
20260830110002 82 122 0.0 1.0 0.00 0.00 0.00 64 992.7
20260830104606 83 120 1.0 2.0 0.00 0.00 0.00 62 992.4
20260830103058 83 120 0.0 3.0 0.00 0.00 0.00 61 992.3
20260830101602 84 120 0.0 2.0 0.00 0.00 0.00 60 992.2
20260830100053 84 120 0.0 2.0 0.00 0.00 0.00 59 992.1